Elmira, NY

1:55 PM EDT on October 17, 2017 (GMT -0400)
Elmira-Corning Regional

Weather History for KELM - September, 2013

Change the Weather History Date:

Friday, September 13, 2013

  Actual Average Record
Temperature  
Mean Temperature 57 °F -  
Max Temperature 63 °F 75 °F 97 °F (1948)
Min Temperature 51 °F 48 °F 30 °F (1964)
Degree Days  
Heating Degree Days 8    
Growing Degree Days 7 (Base 50)    
Moisture  
Dew Point 52 °F    
Average Humidity 81    
Maximum Humidity 97    
Minimum Humidity 63    
Precipitation  
Precipitation 0.36 in - - ()
Sea Level Pressure  
Sea Level Pressure 29.83 in    
Wind  
Wind Speed 5 mph (NNW)    
Max Wind Speed 14 mph    
Max Gust Speed 18 mph    
Visibility 8 miles    
Events Rain    
Averages and records for this station are not official NWS values.
T = Trace of Precipitation, MM = Missing Value Source: NWS Daily Summary

Daily Weather History Graph

Daily Weather History Graph

Search for Another Location

Airport or City:

Trip Planner

Search our weather history database for the weather conditions in past years. The results will help you decide how hot, cold, wet, or windy it might be!

Date:

Astronomy

Sep. 13, 2013 Rise Set
Actual Time 6:45 AM EDT 7:20 PM EDT
Civil Twilight 6:17 AM EDT 7:48 PM EDT
Nautical Twilight 5:44 AM EDT 8:21 PM EDT
Astronomical Twilight 5:09 AM EDT 8:55 PM EDT
Moon 3:12 PM EDT (9/13) 12:08 AM EDT (9/13)
Length of Visible Light 13h 30m
Length of Day
12h 34m
First Quarter, 61% of the Moon is Illuminated
Sep 13
First Quarter
Sep 19
Full
Sep 26
Last Quarter
Oct 4
New
Oct 11
First Quarter

Hourly Weather History & Observations

Time (EDT) Temp. Dew Point Humidity Pressure Visibility Wind Dir Wind Speed Gust Speed Precip Events Conditions
12:39 AM 60.8 °F 57.2 °F 88% 29.75 in 2.5 mi West 3.5 mph - N/A   Partly Cloudy
12:53 AM 57.9 °F 57.0 °F 97% 29.74 in 2.0 mi West 3.5 mph - N/A   Clear
1:03 AM 60.8 °F 57.2 °F 88% 29.75 in 6.0 mi Calm Calm - N/A   Clear
1:53 AM 57.9 °F 55.9 °F 93% 29.75 in 4.0 mi West 3.5 mph - N/A   Mostly Cloudy
2:27 AM 60.8 °F 57.2 °F 88% 29.75 in 10.0 mi Variable 3.5 mph - N/A   Scattered Clouds
2:53 AM 60.1 °F 55.9 °F 86% 29.74 in 10.0 mi SSW 4.6 mph - N/A   Mostly Cloudy
3:53 AM 61.0 °F 55.0 °F 81% 29.75 in 10.0 mi SSW 3.5 mph - N/A   Overcast
4:53 AM 60.1 °F 55.9 °F 86% 29.74 in 10.0 mi SSW 3.5 mph - N/A   Partly Cloudy
5:09 AM 59.0 °F 55.4 °F 88% 29.75 in 10.0 mi WNW 4.6 mph - N/A   Mostly Cloudy
5:53 AM 60.1 °F 55.0 °F 83% 29.72 in 10.0 mi South 3.5 mph - N/A   Mostly Cloudy
6:34 AM 60.8 °F 55.4 °F 82% 29.76 in 10.0 mi WSW 4.6 mph - N/A   Overcast
6:45 AM 60.8 °F 55.4 °F 82% 29.76 in 5.0 mi WSW 3.5 mph - 0.01 in Rain Light Rain
6:53 AM 60.1 °F 55.9 °F 86% 29.75 in 3.0 mi South 5.8 mph - 0.03 in Rain Rain
7:43 AM 59.0 °F 55.4 °F 88% 29.78 in 4.0 mi Calm Calm - 0.06 in Rain Light Rain
7:53 AM 59.0 °F 55.0 °F 87% 29.78 in 3.0 mi North 6.9 mph - 0.08 in Rain Rain
8:53 AM 60.1 °F 54.0 °F 80% 29.78 in 10.0 mi Calm Calm - 0.06 in Rain Light Rain
9:09 AM 57.2 °F 53.6 °F 88% 29.80 in 1.8 mi North 9.2 mph - 0.06 in Rain Heavy Rain
9:21 AM 57.2 °F 53.6 °F 88% 29.80 in 2.0 mi Variable 5.8 mph - 0.12 in Rain Rain
9:37 AM 57.2 °F 53.6 °F 88% 29.81 in 3.0 mi North 5.8 mph - 0.17 in Rain Rain
9:53 AM 57.9 °F 52.0 °F 81% 29.81 in 10.0 mi NNW 6.9 mph - 0.18 in Rain Light Rain
10:53 AM 59.0 °F 51.1 °F 75% 29.83 in 10.0 mi Calm Calm - 0.00 in   Overcast
11:12 AM 60.8 °F 51.8 °F 72% 29.83 in 10.0 mi Variable 3.5 mph - N/A   Overcast
11:51 AM 62.6 °F 51.8 °F 68% 29.83 in 10.0 mi NNW 5.8 mph - N/A   Overcast
11:53 AM 63.0 °F 52.0 °F 67% 29.82 in 10.0 mi NW 8.1 mph - N/A   Overcast
12:53 PM 61.0 °F 53.1 °F 75% 29.83 in 10.0 mi North 5.8 mph - 0.00 in   Overcast
1:13 PM 60.8 °F 51.8 °F 72% 29.84 in 10.0 mi NE 6.9 mph - N/A   Overcast
1:34 PM 62.6 °F 50.0 °F 63% 29.83 in 10.0 mi North 10.4 mph - N/A   Overcast
1:53 PM 60.1 °F 52.0 °F 75% 29.83 in 10.0 mi WNW 9.2 mph - 0.00 in Rain Light Rain
2:53 PM 59.0 °F 51.1 °F 75% 29.84 in 10.0 mi Variable 4.6 mph - 0.01 in   Overcast
3:04 PM 57.2 °F 51.8 °F 82% 29.85 in 8.0 mi NNE 8.1 mph - 0.00 in Rain Light Rain
3:53 PM 57.9 °F 51.1 °F 78% 29.85 in 10.0 mi NE 8.1 mph - 0.00 in   Overcast
4:05 PM 57.2 °F 51.8 °F 82% 29.86 in 10.0 mi NNE 11.5 mph 18.4 mph N/A   Overcast
4:30 PM 57.2 °F 50.0 °F 77% 29.87 in 10.0 mi NNE 5.8 mph 18.4 mph N/A   Overcast
4:53 PM 55.9 °F 48.9 °F 77% 29.88 in 10.0 mi NNE 13.8 mph - N/A   Overcast
5:53 PM 55.9 °F 46.9 °F 72% 29.90 in 10.0 mi North 12.7 mph - N/A   Overcast
6:49 PM 53.6 °F 46.4 °F 77% 29.92 in 10.0 mi Calm Calm - N/A   Overcast
6:53 PM 54.0 °F 46.0 °F 75% 29.92 in 10.0 mi Variable 4.6 mph - N/A   Overcast
7:53 PM 53.1 °F 45.0 °F 74% 29.94 in 10.0 mi NNW 6.9 mph - N/A   Overcast
8:16 PM 53.6 °F 44.6 °F 72% 29.95 in 10.0 mi NNW 9.2 mph - N/A   Overcast
8:51 PM 51.8 °F 46.4 °F 82% 29.96 in 10.0 mi NNW 8.1 mph - N/A   Overcast
8:53 PM 52.0 °F 46.0 °F 80% 29.96 in 10.0 mi NNW 10.4 mph - N/A   Overcast
9:53 PM 52.0 °F 46.9 °F 83% 29.97 in 9.0 mi NNW 4.6 mph - N/A   Overcast
10:53 PM 52.0 °F 46.9 °F 83% 29.98 in 10.0 mi NW 3.5 mph - N/A   Overcast
11:53 PM 51.1 °F 46.0 °F 83% 29.97 in 10.0 mi WNW 3.5 mph - N/A   Overcast